Regional Weather Roundup
Issued by NWS Midland/Odessa, TX

Home | Current Version | Previous Version | Text Only | Print | Product List | Glossary On
Versions: 1 2 3 4 5 6 7 8 9 10 11 12 13 14 15 16 17 18 19 20 21 22 23 24 25 26 27 28 29 30 31 32 33 34 35 36 37 38 39 40 41 42 43 44 45 46 47 48 49 50
000
ASUS44 KMAF 242110
RWRMAF
MIDLAND AREA WEATHER ROUNDUP
NATIONAL WEATHER SERVICE MIDLAND TX
300 PM CST TUE JAN 24 2017

...IN SOUTHWEST TEXAS AND SOUTHEAST NEW MEXICO...

CITY           SKY/WX    TMP DP  RH WIND       PRES   REMARKS
ALPINE         SUNNY     76  20  12 SW25G43   29.75F
ANDREWS        FAIR      66  29  25 W24G37    29.67S
ARTESIA        SUNNY     59  19  21 W33       29.71S
BIG SPRING     SUNNY     71  31  22 W17G23    29.67F
CARLSBAD       SUNNY     61  25  25 W37G49    29.69F
DRYDEN           N/A     88  21   8 SW24G33   29.59F
FORT STOCKTON  SUNNY     72  30  21 N20G26    29.66F
GUAD PASS      MOSUNNY   51  27  39 W40G56    29.75S
HOBBS          SUNNY     59  25  27 SW33G48   29.70S
MARFA          SUNNY     73  20  13 W24G47    29.74F
MIDLAND AIRPK  SUNNY     72  27  18 W21G37    29.66S
MIDLAND INTL   SUNNY     72  28  19 W25G31    29.66S
ODESSA         SUNNY     70  27  20 W29G36    29.67S
PECOS          SUNNY     70  31  24 W24       29.67S
PRESIDIO       FAIR      83  24  11 SW24G32   29.64F
SEMINOLE       SUNNY     63  28  27 W26G38    29.70S
SNYDER         PTSUNNY   71  33  24 W21G28    29.65S
WINK           SUNNY     68  30  24 W25G33    29.67S
$$
...OTHER STATIONS IN TEXAS...

CITY           SKY/WX    TMP DP  RH WIND       PRES   REMARKS
ABILENE        CLOUDY    76  35  22 NW15      29.61S
AMARILLO       SUNNY     57  18  21 SW35G47   29.56S
AUSTIN         MOSUNNY   84  55  36 S16G24    29.64F
BROWNSVILLE    LGT RAIN  82  66  58 S30G39    29.67F
CORPUS CHRISTI MOSUNNY   84  65  52 SE22      29.65F
DALLAS FTW     CLOUDY    79  49  34 S15       29.56F
DEL RIO        SUNNY     83  41  22 SE12      29.59F
EL PASO        MOSUNNY   53  25  33 W20G29    29.80F
HOUSTON INT    MOSUNNY   79  60  52 S17       29.73F
LUBBOCK        MOSUNNY   65  23  20 W37G45    29.61S
SAN ANGELO     MOSUNNY   83  30  14 SW22G33   29.59F
SAN ANTONIO    PTSUNNY   80  51  36 S13       29.66F
WACO           SUNNY     77  53  43 S24       29.59F
WICHITA FALLS  NOT AVBL
$$
...OTHER LOCATIONS IN NEW MEXICO...

CITY           SKY/WX    TMP DP  RH WIND       PRES   REMARKS
ALAMAGORDO     SUNNY     52  16  24 W23       29.81F
ALBUQUERQUE    MOSUNNY   41  13  31 W26G40    29.73F WCI  30
CANNON AFB     SUNNY     52  21  30 W30G37    29.63S
CLOVIS         SUNNY     54  25  32 W30G38    29.64R
HOLLOMAN AFB   SUNNY     51  18  27 SW31G37   29.83S
ROSWELL        SUNNY     59  15  18 W26G32    29.68S
RUIDOSO        SUNNY     39   5  24 W18G32    29.74S WCI  30
SANTA FE       PTSUNNY   38  18  44 W23G32    29.68S WCI  27
TRUTH OR CONSE SUNNY     48  14  25 W23G30    29.78S
TUCUMCARI      SUNNY     53  10  18 W38G51    29.61R
$$



USA.gov is the U.S. government's official web portal to all federal, state and local government web resources and services.